Home > Weather > Vancouver > Past weeks

Flag for U.S.A. Weather for the Past 2 Weeks in Vancouver, Washington, U.S.A.

Now
47 °F

Passing clouds.


Feels Like: 45 °F
Forecast: 44 / 49 °F
Wind: 5 mph from North

Location: Vancouver - Pearson Airpark

Current Time: Feb 13, 2016 at 3:51:54 AM

Latest Report: Feb 13, 2016 at 2:53 AM


Visibility: 10 mi

Pressure: 30.32 "Hg

Humidity: 83%

Dew point: 42 °F

Location of VancouverLocation

Historic Weather in Vancouver — Graph

°F

Vancouver Temperature Yesterday

Maximum temperature yesterday: 53 °F (at 3:53 PM)
Minimum temperature yesterday: 45 °F (at 7:53 PM)
Average temperature yesterday: 50 °F

High & Low Weather Summary for the Past Weeks

 TemperatureHumidityPressure
High60 °F (Feb 8, 2:53 PM)100% (Feb 6, 7:53 AM)30.54 "Hg (Feb 6, 7:53 AM)
Low32 °F (Feb 2, 2:59 AM)47% (Feb 8, 3:53 PM)29.63 "Hg (Jan 29, 7:53 AM)
Average46 °F82%30.22 "Hg
* Reported Jan 29 5:53 AM — Feb 13 2:53 AM, Vancouver, Weather by CustomWeather, © 2016

Note: Actual official high and low records may vary slightly from our data, if they occured in-between our weather recording intervals... More about our weather records

Advertising

Vancouver Weather History for the Previous 24 Hours

 ConditionsComfort  
Time TempWeatherWind HumidityBarometerVisibility
2:53 AM
Sat, Feb 13
47 °FPassing clouds.5 mph83%30.32 "Hg10 mi
1:53 AM48 °FLight rain. Mostly cloudy.5 mph83%30.31 "Hg6 mi
12:53 AM48 °FPassing clouds.5 mph80%30.29 "Hg10 mi
11:53 PM
Fri, Feb 12
48 °FPassing clouds.3 mph83%30.29 "Hg10 mi
10:53 PM49 °FPassing clouds.5 mph80%30.28 "Hg10 mi
9:53 PM50 °FPassing clouds.5 mph74%30.26 "Hg10 mi
8:53 PM49 °FPassing clouds.6 mph80%30.24 "Hg10 mi
7:53 PM45 °FClear.No wind97%30.24 "Hg10 mi
6:53 PM48 °FClear.No wind93%30.22 "Hg10 mi
5:53 PM51 °FPartly cloudy.3 mph89%30.21 "Hg10 mi
4:53 PM52 °FSunny.5 mph89%30.19 "Hg10 mi
3:53 PM53 °FScattered clouds.9 mph89%30.18 "Hg10 mi
2:53 PM52 °FCloudy.9 mph89%30.17 "Hg10 mi
1:53 PM51 °FMostly cloudy.9 mph92%30.17 "Hg8 mi
12:53 PM51 °FLight rain. Mostly cloudy.8 mph89%30.18 "Hg7 mi
11:53 AM50 °FFog.8 mph89%30.19 "Hg6 mi
10:53 AM50 °FLight rain. Fog.5 mph96%30.16 "Hg5 mi
9:58 AM49 °FRain. Fog.7 mph90%30.16 "Hg2 mi
8:53 AM50 °FLight rain. Mostly cloudy.10 mph80%30.14 "Hg9 mi
7:53 AM49 °FPartly sunny.13 mph80%30.13 "Hg10 mi
6:53 AM49 °FOvercast.7 mph84%30.15 "Hg10 mi
5:53 AM48 °FOvercast.7 mph83%30.14 "Hg10 mi
4:53 AM49 °FMostly cloudy.7 mph80%30.14 "Hg10 mi
3:53 AM49 °FOvercast.8 mph84%30.15 "Hg10 mi
Weather by CustomWeather, © 2016

See weather overviewHow to use our weather pages